This demonstration page uses our WeatherBlox Daily Observations layout. Learn more.

Left ArrowRight Arrow

39.08367, -84.50855

Hourly Observations for December 11, 2015

Temp ( °F °C ) Dew Point ( °F °C ) Humidity (%) Winds ( mph kmh ) Pressure ( in mb ) Visibility ( mi km ) Precip ( " mm )
12:53 am 00:53 Cloudy 52 11.1 49 9.4 89 89 SW 9 15 29.80 1009 9 14 0.00 0.00
1:53 am 01:53 Cloudy 52 11.1 49 9.4 89 89 SW 8 13 29.80 1009 8 13 0.00 0.00
2:53 am 02:53 Cloudy 53 11.7 50 10 89 89 SSW 8 13 29.81 1010 7 11 0.00 0.00
3:53 am 03:53 Cloudy 53 11.7 50 10 89 89 SSW 8 13 29.84 1010 7 11 0.00 0.00
4:53 am 04:53 Cloudy 53 11.7 51 10.6 93 93 SSW 8 13 29.84 1011 7 11 0.00 0.00
5:53 am 05:53 Cloudy with Mist and Fog 53 11.7 51 10.6 93 93 SW 6 9 29.86 1011 6 10 0.00 0.00
6:53 am 06:53 Cloudy with Mist and Fog 53 11.7 52 11.1 96 96 Calm 29.87 1012 4 6 0.00 0.03
7:20 am 07:20 Cloudy with Mist and Fog 54 12 52 11 94 94 WSW 3 6 29.91 1013 4 6 0.00 0.00
7:45 am 07:45 Cloudy with Mist and Fog 53 11.7 53 11.7 100 100 Calm 29.94 1014 2 3 0.00 0.00
7:53 am 07:53 Cloudy with Mist and Fog 53 11.7 53 11.7 100 100 Calm 29.90 1013 2 3 0.00 0.00
8:53 am 08:53 Cloudy with Mist and Fog 53 11.7 53 11.7 100 100 S 3 6 29.92 1013 2 3 0.00 0.00
9:01 am 09:01 Cloudy with Mist and Fog 53 11.7 53 11.7 100 100 SSW 3 6 29.94 1014 3 4 0.00 0.00
9:53 am 09:53 Cloudy with Mist and Fog 56 13.3 54 12.2 93 93 S 8 13 29.92 1013 3 5 0.00 0.00
10:05 am 10:05 Cloudy with Mist and Fog 57 13.9 55 12.8 93 93 S 8 13 29.91 1013 4 6 0.00 0.00
10:12 am 10:12 Cloudy with Mist and Fog 57 14 55 13 94 94 S 8 13 29.91 1013 4 6 0.00 0.00
10:53 am 10:53 Cloudy with Mist and Fog 58 14.4 55 12.8 90 90 S 7 11 29.93 1014 6 10 0.00 0.00
11:53 am 11:53 Cloudy 60 15.6 55 12.8 84 84 SSW 6 9 29.93 1014 7 11 0.00 0.00
12:29 pm 12:29 Cloudy 61 16.1 55 12.8 81 81 SW 9 15 29.91 1013 8 13 0.00 0.00
12:53 pm 12:53 Cloudy 61 16.1 54 12.2 78 78 WSW 8 13 29.91 1013 8 13 0.00 0.00
1:53 pm 13:53 Cloudy 62 16.7 55 12.8 78 78 SSW 10 17 29.92 1013 9 14 0.00 0.00
2:53 pm 14:53 Cloudy 63 17.2 55 12.8 76 76 S 6 9 29.91 1013 9 14 0.00 0.00
3:53 pm 15:53 Cloudy 63 17.2 54 12.2 73 73 S 7 11 29.90 1012 10 16 0.00 0.00
4:53 pm 16:53 Mostly Cloudy 61 16.1 54 12.2 78 78 S 6 9 29.91 1013 10 16 0.00 0.00
5:53 pm 17:53 Mostly Cloudy 60 15.6 53 11.7 78 78 S 5 7 29.91 1013 10 16 0.00 0.00
6:53 pm 18:53 Clear 59 15 54 12.2 83 83 SSW 3 6 29.92 1013 10 16 0.00 0.00
7:53 pm 19:53 Mostly Cloudy 57 13.9 54 12.2 90 90 Calm 29.93 1014 9 14 0.00 0.00
8:53 pm 20:53 Cloudy 56 13.3 53 11.7 90 90 Calm 29.96 1015 8 13 0.00 0.00
9:53 pm 21:53 Cloudy 55 12.8 54 12.2 96 96 Calm 29.96 1015 7 11 0.00 0.00
10:53 pm 22:53 Cloudy 54 12.2 53 11.7 97 97 Calm 29.96 1014 7 11 0.00 0.00
11:53 pm 23:53 Cloudy 56 13.3 55 12.8 97 97 Calm 29.95 1014 8 13 0.00 0.00

Powered by AerisWeather